EW6183 Weather Reports


time (UTC)temp
F
wind
direction
speed
knots
gust
knots
rain 1hr
in
rain 24hr
in
rain mn
in
humidity
%
barometer
mb
20260506201557 66 59 0.9 4.3 0.00 0.00 0.00 78 1008.0
20260506200055 66 232 2.6 7.0 0.00 0.00 0.00 77 1008.0
20260506194555 65 176 1.7 7.0 0.00 0.00 0.00 78 1008.3
20260506193058 64 250 1.7 5.2 0.00 0.00 0.00 79 1008.4
20260506191552 64 188 0.9 3.5 0.00 0.00 0.00 80 1008.5
20260506190051 65 194 1.7 7.8 0.00 0.00 0.00 79 1008.7
20260506184551 66 260 0.9 7.0 0.00 0.00 0.00 76 1008.6
20260506183058 66 238 0.9 7.0 0.00 0.00 0.00 75 1008.7
20260506181649 68 224 2.6 10.4 0.00 0.00 0.00 70 1008.9
20260506180050 69 256 3.5 9.6 0.00 0.00 0.00 66 1009.0
20260506174547 70 260 2.6 7.8 0.00 0.00 0.00 66 1008.9
20260506173116 70 315 2.6 8.7 0.00 0.00 0.00 68 1009.0
20260506171552 70 137 2.6 7.8 0.00 0.00 0.00 69 1009.2
20260506170045 69 209 1.7 12.2 0.00 0.00 0.00 69 1009.3
20260506164542 68 206 1.7 7.8 0.00 0.00 0.00 69 1009.7
20260506163040 68 180 0.9 8.7 0.00 0.00 0.00 68 1010.3
20260506161538 69 175 2.6 15.6 0.00 0.00 0.00 66 1010.5
20260506160041 70 257 0.9 6.1 0.00 0.00 0.00 63 1010.5
20260506154538 71 184 1.7 6.1 0.00 0.00 0.00 61 1010.5
20260506153037 71 259 2.6 7.0 0.00 0.00 0.00 61 1010.5
20260506151536 70 154 2.6 7.0 0.00 0.00 0.00 62 1010.5
20260506150035 70 199 1.7 13.9 0.00 0.00 0.00 61 1010.6
20260506144534 71 184 1.7 18.2 0.00 0.00 0.00 60 1010.6
20260506143035 71 219 2.6 14.8 0.00 0.00 0.00 61 1010.5
20260506141532 70 192 0.9 13.0 0.00 0.00 0.00 61 1010.5
20260506140034 71 178 3.5 11.3 0.00 0.00 0.00 62 1010.3
20260506134529 71 194 3.5 7.8 0.00 0.00 0.00 63 1010.5
20260506133024 70 198 1.7 8.7 0.00 0.00 0.00 65 1010.8
20260506131539 69 86 2.6 7.0 0.00 0.00 0.00 69 1010.9
20260506130032 68 190 2.6 9.6 0.00 0.00 0.00 70 1011.0
20260506124514 66 218 1.7 5.2 0.00 0.00 0.00 73 1011.1
20260506123009 64 176 0.9 8.7 0.00 0.00 0.00 76 1011.1
20260506121508 64 163 1.7 4.3 0.00 0.00 0.00 77 1011.2
20260506120013 63 213 0.9 7.0 0.00 0.00 0.00 78 1011.2
20260506114507 62 208 1.7 6.1 0.00 0.00 0.00 79 1011.3
20260506113006 60 150 0.9 7.0 0.00 0.00 0.00 80 1011.4
20260506111505 60 166 1.7 8.7 0.00 0.00 0.00 80 1011.5
20260506110004 59 228 0.9 4.3 0.00 0.00 0.00 80 1011.4
20260506104504 58 144 1.7 4.3 0.00 0.00 0.00 80 1011.4
20260506103003 58 159 0.9 3.5 0.00 0.00 0.00 80 1011.4
20260506101505 58 128 0.9 2.6 0.00 0.00 0.00 80 1011.4
20260506100101 59 285 0.9 4.3 0.00 0.00 0.00 81 1011.1
20260506094624 59 94 1.7 5.2 0.00 0.00 0.00 81 1011.1
20260506093058 59 194 1.7 6.1 0.00 0.00 0.00 80 1011.2
20260506091556 59 186 0.9 6.1 0.00 0.00 0.00 80 1011.3
20260506090054 60 130 1.7 7.0 0.00 0.00 0.00 81 1011.4
20260506084553 60 146 0.9 7.8 0.00 0.00 0.00 80 1011.5
20260506083053 60 174 0.9 5.2 0.00 0.00 0.00 80 1011.5
20260506081554 60 177 1.7 6.1 0.00 0.00 0.00 80 1011.5
20260506073047 61 140 1.7 7.0 0.00 0.00 0.00 80 1011.4
20260506071547 61 165 1.7 8.7 0.00 0.00 0.00 80 1011.7
20260506061542 61 171 1.7 6.1 0.00 0.00 0.00 80 1011.8
20260506044530 64 158 1.7 5.2 0.00 0.00 0.00 75 1012.1
20260506043029 64 239 0.0 10.4 0.00 0.00 0.00 74 1012.1
20260506041528 64 190 1.7 5.2 0.00 0.00 0.00 74 1012.0
20260506040026 64 148 1.7 5.2 0.00 0.00 0.00 74 1012.1
20260506034526 64 91 1.7 5.2 0.00 0.00 0.00 73 1012.1
20260506033024 64 144 1.7 6.1 0.00 0.00 0.00 72 1012.1
20260506031525 64 216 0.9 6.1 0.00 0.00 0.00 72 1012.1
20260506030030 65 179 0.9 7.0 0.00 0.00 0.00 72 1012.1
20260506024539 65 138 1.7 8.7 0.00 0.00 0.00 71 1012.1
20260506023023 65 236 0.9 9.6 0.00 0.00 0.00 69 1012.2
20260506021523 66 171 1.7 9.6 0.00 0.00 0.00 68 1012.3
20260506020022 66 128 2.6 12.2 0.00 0.00 0.00 67 1012.3
20260506014524 66 282 1.7 7.8 0.00 0.00 0.00 66 1012.2
20260506013021 66 179 1.7 7.0 0.00 0.00 0.00 64 1012.0
20260506011520 67 167 2.6 8.7 0.00 0.00 0.00 63 1012.0
20260506010021 67 137 1.7 9.6 0.00 0.00 0.00 62 1011.7
20260506004520 68 117 1.7 7.8 0.00 0.00 0.00 61 1011.6
20260506003018 68 140 1.7 8.7 0.00 0.00 0.00 60 1011.5
20260506001518 69 177 1.7 7.0 0.00 0.00 0.00 59 1011.4
20260506000016 70 209 0.9 7.0 0.00 0.00 0.00 57 1011.3
20260505234519 71 174 1.7 7.8 0.00 0.00 0.00 55 1011.0
20260505233009 73 186 1.7 7.0 0.00 0.00 0.00 52 1010.9
20260505231506 74 184 2.6 6.1 0.00 0.00 0.00 49 1010.5
20260505230020 75 164 1.7 6.1 0.00 0.00 0.00 47 1010.4
20260505224505 76 257 2.6 10.4 0.00 0.00 0.00 46 1010.3
20260505223004 78 186 2.6 7.8 0.00 0.00 0.00 44 1009.9
20260505221504 79 232 3.5 11.3 0.00 0.00 0.00 39 1009.9
20260505220003 80 241 2.6 11.3 0.00 0.00 0.00 35 1009.7
20260505214504 81 215 2.6 10.4 0.00 0.00 0.00 34 1009.6
20260505213002 82 202 5.2 11.3 0.00 0.00 0.00 30 1009.5
20260505211502 82 201 3.5 10.4 0.00 0.00 0.00 32 1009.4
20260505210001 83 190 2.6 13.0 0.00 0.00 0.00 32 1009.1
20260505204600 83 207 3.5 13.9 0.00 0.00 0.00 33 1009.2
20260505203105 84 109 3.5 13.0 0.00 0.00 0.00 34 1009.2